星链-11150 (STARLINK-11150)

导读 | 星芒AI

STARLINK-11150 是 SpaceX Starlink 卫星互联网项目中的一个组成部分,属于第 11 批部署的卫星之一。该卫星于 2020 年 11 月发射,旨在为全球用户提供高速互联网服务。它运行在近地轨道,采用先进的通信技术,支持低延迟和高带宽连接。Starlink 项目致力于为偏远地区提供网络覆盖,改善全球互联网接入。STARLINK-11150 在项目中发挥着关键作用,是 SpaceX 扩展其卫星网络、实现全球宽带目标的重要一环。

基本信息
目录编号:
60406
目录名称:
STARLINK-11150
国际标识:
2024-141J
轨道中心:
EARTH
卫星名称:
星链-11150 (STARLINK-11150)
卫星全名:
星链-11150 (STARLINK-11150)
卫星状态:
在轨 (已飞行492 天)
发射日期:
2024-08-10 UTC
国别 :
美国 (US)
星等 :
--
轨道信息
数据来源 国际轨道数据
星历时间: 2025-12-15T04:08:31+0800
22小时前
查看轨道信息
半长轴: 6737.852km
偏心率: 0.000066
轨道倾角: 53.159°
近地点辐角 103.138°
升交点赤经 144.730°
平近点角 256.972°
近地点: 359.272km
远地点: 360.162km
周期: 91.736分钟
每日圈数: 15.697144
详细信息
卫星平台:
Starlink v2.0 mini
运营商:
太空探索技术公司
运营商所在国:
美国
制造商(研发单位):
太空探索技术公司
制造商所在国:
美国
使用方式:
暂无
卫星简介
星链(Starlink)计划是由太空探索技术公司(SpaceX)提出的一个巨型低轨卫星互联网星座项目,计划在2019年至2024年间在太空搭建由约1.2万颗卫星组成的“星链”网络,其中1584颗将部署在地球上空550千米处的近地轨道,并从2020年开始工作。该卫星仍在工作。
2D轨道图
3D轨道图
轨道高度分析图
轨道倾角分析图
轨道综合分析图
查看轨道综合分析图